CAPE
30 26 38 39 43 49 26 47 31 88 129 94 50 33 7 0 0 2 10 9 5 0 0 12 0 0 0 0 0 0 0 0 0 0 0 0 0 0 0 68 1 0 16 15
30 29 32 35 38 49 93 43 32 74 76 46 28 17 17 10 8 28 29 63 62 10 0 13 4 0 0 0 0 0 0 24 2 0 0 0 0 0 0 2 76 6 73 6
34 16 17 46 26 34 72 45 46 65 63 39 41 23 18 13 7 53 66 44 79 89 21 6 1 5 0 0 0 0 78 12 34 8 0 0 0 0 0 16 138 3 20 5
37 24 8 35 51 57 113 24 39 26 76 58 21 27 34 22 29 27 47 86 113 72 68 28 1 0 0 11 0 0 81 10 0 0 0 0 0 0 0 0 1 35 0 6
40 38 13 26 44 59 120 42 107 120 101 75 145 47 34 54 13 25 10 100 102 108 113 56 1 55 129 201 141 30 27 76 8 0 0 0 0 0 0 0 0 0 0 0
38 50 42 11 37 79 69 91 60 140 84 102 130 92 60 59 11 3 109 111 117 130 106 69 4 2 0 0 0 29 87 133 50 0 0 0 9 0 0 0 0 0 0 0
52 54 53 36 14 69 95 65 96 180 37 107 60 34 33 44 30 23 1 30 73 95 138 76 51 2 0 1 0 0 79 59 118 72 31 80 0 0 0 0 0 0 0 0
52 55 69 62 38 60 18 119 19 115 35 37 51 70 60 34 28 51 27 48 1 63 131 195 57 13 14 1 8 0 8 139 144 215 104 0 0 0 0 0 0 0 0 0
46 59 79 78 47 30 40 15 22 18 50 28 51 80 59 70 78 42 7 17 52 77 247 232 39 85 80 84 2 1 16 100 217 95 163 82 0 0 0 0 0 0 0 0
42 52 84 74 46 34 47 10 71 34 29 49 113 112 64 56 26 11 26 19 51 80 198 262 78 50 35 7 57 116 192 185 185 141 170 85 0 0 0 8 0 3 0 30
41 45 66 82 46 20 49 8 274 65 163 18 8 8 61 82 67 12 54 17 9 294 133 312 104 56 54 17 0 7 177 239 56 7 143 386 0 0 0 0 0 27 30 68
42 55 41 94 40 15 34 16 107 381 111 18 2 15 36 55 72 41 6 19 2 240 286 110 236 156 127 1 6 0 63 84 107 41 3 1 0 0 0 0 2 2 9 6
42 58 60 67 32 28 21 28 86 166 56 21 19 11 1 21 44 5 4 25 30 9 6 340 331 150 256 273 94 17 4 99 209 33 0 0 0 0 0 2 0 0 0 0
42 52 55 42 22 32 21 21 145 233 39 64 13 12 13 13 8 7 13 13 12 5 8 96 268 304 106 142 58 247 118 171 258 26 0 0 0 0 0 0 0 0 0 0
45 39 41 19 14 27 30 14 27 67 32 57 67 12 6 2 3 10 14 15 16 5 11 9 180 1 8 6 73 222 40 11 99 66 0 28 0 0 0 0 0 0 0 0
69 49 16 8 17 26 20 11 31 42 5 7 46 10 6 5 8 8 8 9 7 6 6 5 5 0 4 120 236 0 0 0 134 0 0 0 0 0 0 0 0 0 0 0
41 24 9 14 33 33 12 38 3 8 4 8 19 8 9 7 8 12 13 9 6 15 4 9 27 2 1 2 7 0 0 0 0 0 0 0 0 0 0 0 0 0 0 0
31 13 17 23 33 49 33 15 8 28 10 25 13 2 11 6 32 33 0 9 14 9 20 12 8 10 15 14 0 0 0 0 0 0 0 0 0 0 0 0 0 0 0 0
11 15 23 43 40 17 5 1 15 15 11 53 5 1 14 11 13 3 12 3 6 1 10 13 4 21 15 19 8 1 0 0 0 0 0 0 0 0 0 0 0 0 0 0
10 58 42 8 11 0 19 8 8 3 6 20 1 0 6 9 12 1 2 5 5 9 0 0 2 28 4 2 1 0 0 0 0 0 0 0 0 0 0 0 0 0 0 0
49 54 45 10 17 4 5 14 37 42 19 1 0 0 2 0 3 8 0 11 0 3 0 1 5 15 5 1 1 0 0 0 0 0 0 0 0 0 0 0 0 0 0 0
21 18 19 13 5 12 13 19 5 9 1 0 0 0 1 0 0 0 0 0 0 0 0 0 5 1 0 0 0 0 0 0 0 0 0 0 0 0 0 0 0 0 0 0
19 12 8 13 5 7 10 4 0 0 0 0 0 0 0 0 0 0 0 0 0 0 0 0 12 0 0 0 0 0 0 0 0 0 0 0 0 0 0 0 0 0 0 0
11 44 14 10 2 0 0 0 0 0 0 0 0 0 0 0 0 0 0 0 0 0 0 0 0 0 0 0 0 0 0 0 0 0 0 0 0 0 0 0 0 0 0 0
14 21 6 0 0 0 0 0 0 0 0 0 0 0 0 0 0 0 0 0 0 0 0 0 0 0 0 0 0 0 0 0 0 0 0 0 0 0 0 0 0 0 0 0
15 10 1 0 0 0 0 0 0 0 0 0 0 0 0 0 0 0 0 0 0 0 0 0 0 0 0 0 0 0 0 0 0 0 0 0 0 0 0 0 0 0 0 0
29 11 0 0 0 0 0 0 0 0 0 0 0 0 0 0 0 0 0 0 0 0 0 0 0 0 0 0 0 0 0 0 0 0 0 0 0 0 0 0 0 0 0 0
CIN
-0 -0 -0 -0 -0 -0 -0 -0 -0 -0 -0 -0 -0 -0 -0 -0 -0 -0 -0 -0 -0 -0 -0 -0 -0 -0 -0 -0 -0 -0 -0 -0 -0 -0 -0 -0 -0 -0 -0 -12 -0 -0 -14 -0
-0 -0 -0 -0 -0 -0 -0 -0 -0 -0 -0 -0 -0 -0 -0 -0 -0 -0 -0 -0 -0 -0 -0 -0 -0 -0 -0 -0 -0 -0 -0 -0 -0 -0 -0 -0 -0 -0 -0 -0 -3 -0 -13 -37
-0 -0 -0 -0 -0 -0 -0 -0 -0 -0 -0 -0 -0 -0 -0 -0 -0 -0 -0 -0 -0 -0 -0 -0 -0 -0 -0 -0 -0 -0 -41 -5 -9 -1 -0 -0 -0 -0 -0 -0 -0 -2 -17 -0
-0 -0 -0 -0 -0 -2 -0 -4 -0 -1 -0 -0 -0 -0 -0 -0 -0 -0 -0 -0 -0 -0 -0 -0 -0 -0 -0 -9 -0 -0 -15 -2 -0 -0 -0 -0 -0 -0 -0 -0 -1 -9 -0 -57
-0 -0 -0 -1 -0 -0 -0 -0 -0 -0 -0 -0 -0 -0 -0 -0 -0 -0 -0 -0 -0 -0 -0 -0 -0 -0 -0 -0 -27 -40 -47 -2 -5 -0 -0 -0 -0 -0 -0 -0 -0 -0 -0 -0
-0 -0 -0 -0 -0 -0 -0 -0 -0 -0 -0 -0 -0 -0 -0 -0 -0 -0 -0 -0 -0 -0 -0 -0 -13 -0 -0 -0 -0 -33 -29 -19 -6 -0 -0 -0 -0 -0 -0 -0 -0 -0 -0 -0
-0 -0 -0 -0 -1 -0 -0 -0 -0 -0 -4 -0 -0 -0 -0 -0 -0 -0 -0 -19 -6 -9 -0 -0 -12 -0 -0 -0 -0 -0 -53 -30 -2 -0 -0 -1 -0 -0 -0 -0 -0 -0 -0 -0
-0 -0 -0 -0 -0 -0 -4 -0 -3 -0 -1 -5 -0 -0 -0 -0 -0 -9 -0 -5 -0 -13 -0 -0 -3 -30 -0 -0 -0 -0 -90 -30 -3 -0 -0 -0 -0 -0 -0 -0 -0 -0 -0 -0
-0 -0 -0 -0 -0 -0 -0 -0 -0 -0 -0 -10 -0 -0 -0 -3 -4 -0 -0 -19 -0 -0 -0 -0 -8 -6 -2 -0 -31 -5 -52 -36 -3 -14 -0 -0 -0 -0 -0 -0 -0 -0 -0 -0
-0 -0 -0 -0 -0 -0 -2 -0 -4 -0 -0 -2 -0 -0 -0 -0 -1 -0 -0 -0 -1 -0 -0 -0 -0 -0 -2 -33 -0 -1 -0 -0 -0 -5 -0 -0 -4 -0 -0 -13 -0 -14 -0 -79
-0 -0 -0 -0 -0 -0 -1 -0 -0 -3 -0 -0 -12 -1 -0 -0 -0 -0 -0 -0 -0 -0 -0 -0 -0 -3 -2 -0 -0 -4 -0 -0 -20 -17 -10 -1 -0 -0 -0 -0 -0 -110 -129 -157
-0 -0 -0 -0 -0 -0 -0 -0 -3 -0 -0 -0 -1 -0 -5 -1 -0 -0 -0 -0 -0 -0 -0 -0 -0 -0 -1 -0 -8 -0 -2 -0 -0 -7 -3 -8 -0 -0 -0 -0 -35 -36 -221 -253
-0 -0 -0 -0 -0 -0 -0 -0 -13 -0 -0 -0 -0 -0 -6 -19 -1 -3 -0 -0 -0 -0 -0 -0 -0 -0 -0 -0 -18 -0 -0 -7 -0 -39 -0 -0 -0 -0 -0 -104 -0 -0 -0 -0
-0 -0 -0 -0 -0 -0 -0 -0 -0 -0 -0 -0 -0 -15 -14 -0 -0 -2 -0 -0 -0 -0 -0 -0 -0 -0 -22 -0 -35 -0 -8 -13 -4 -22 -0 -0 -0 -0 -0 -0 -0 -0 -0 -0
-5 -0 -0 -1 -0 -0 -0 -0 -0 -0 -0 -0 -0 -0 -0 -0 -0 -0 -0 -0 -0 -0 -0 -0 -0 -13 -34 -14 -27 -0 -41 -26 -19 -18 -0 -72 -0 -0 -0 -0 -0 -0 -0 -0
-0 -0 -0 -0 -0 -0 -0 -0 -4 -1 -0 -0 -0 -0 -0 -0 -0 -0 -0 -0 -0 -0 -0 -0 -0 -0 -0 -2 -0 -0 -0 -0 -59 -0 -0 -0 -0 -0 -0 -0 -0 -0 -0 -0
-0 -0 -0 -8 -0 -0 -0 -0 -0 -0 -0 -0 -0 -0 -0 -0 -0 -0 -0 -0 -0 -0 -0 -0 -0 -0 -0 -0 -1 -0 -0 -0 -0 -0 -0 -0 -0 -0 -0 -0 -0 -0 -0 -0
-0 -0 -0 -0 -0 -0 -0 -0 -0 -0 -0 -0 -1 -0 -0 -0 -0 -0 -0 -1 -0 -0 -0 -0 -0 -0 -0 -0 -0 -0 -0 -0 -0 -0 -0 -0 -0 -0 -0 -0 -0 -0 -0 -0
-0 -0 -0 -0 -0 -0 -0 -0 -0 -0 -0 -0 -0 -0 -0 -0 -0 -0 -1 -6 -0 -0 -0 -0 -0 -0 -0 -0 -0 -0 -0 -0 -0 -0 -0 -0 -0 -0 -0 -0 -0 -0 -0 -0
-0 -0 -0 -0 -0 -0 -0 -0 -0 -0 -0 -0 -0 -0 -0 -0 -0 -0 -0 -33 -6 -2 -0 -0 -0 -0 -0 -0 -0 -0 -2 -0 -0 -0 -0 -0 -0 -0 -0 -0 -0 -0 -0 -0
-0 -0 -0 -0 -0 -0 -0 -0 -0 -0 -0 -0 -0 -0 -0 -0 -0 -5 -0 -11 -0 -1 -0 -0 -0 -0 -0 -1 -1 -0 -0 -0 -0 -0 -0 -0 -0 -0 -0 -0 -0 -0 -0 -0
-0 -0 -0 -0 -0 -0 -0 -0 -0 -0 -0 -0 -0 -0 -0 -0 -0 -0 -0 -0 -0 -0 -0 -0 -0 -0 -0 -0 -0 -0 -0 -0 -0 -0 -0 -0 -0 -0 -0 -0 -0 -0 -0 -0
-0 -0 -0 -0 -0 -0 -0 -0 -0 -0 -0 -0 -0 -0 -0 -0 -0 -0 -0 -0 -0 -0 -0 -0 -0 -0 -0 -0 -0 -0 -0 -0 -0 -0 -0 -0 -0 -0 -0 -0 -0 -0 -0 -0
-0 -0 -0 -0 -0 -0 -0 -0 -0 -0 -0 -0 -0 -0 -0 -0 -0 -0 -0 -0 -0 -0 -0 -0 -0 -0 -0 -0 -0 -0 -0 -0 -0 -0 -0 -0 -0 -0 -0 -0 -0 -0 -0 -0
-0 -0 -1 -0 -0 -0 -0 -0 -0 -0 -0 -0 -0 -0 -0 -0 -0 -0 -0 -0 -0 -0 -0 -0 -0 -0 -0 -0 -0 -0 -0 -0 -0 -0 -0 -0 -0 -0 -0 -0 -0 -0 -0 -0
-0 -0 -0 -0 -0 -0 -0 -0 -0 -0 -0 -0 -0 -0 -0 -0 -0 -0 -0 -0 -0 -0 -0 -0 -0 -0 -0 -0 -0 -0 -0 -0 -0 -0 -0 -0 -0 -0 -0 -0 -0 -0 -0 -0
-0 -0 -0 -0 -0 -0 -0 -0 -0 -0 -0 -0 -0 -0 -0 -0 -0 -0 -0 -0 -0 -0 -0 -0 -0 -0 -0 -0 -0 -0 -0 -0 -0 -0 -0 -0 -0 -0 -0 -0 -0 -0 -0 -0
Wind_Speed
16 15 14 13 12 11 6 3 5 5 7 6 4 11 20 12 29 26 25 29 24 25 26 22 29 31 26 19 20 26 31 16 15 24 22 25 27 25 22 13 19 16 15 13
16 15 15 14 11 9 4 3 6 6 6 9 13 19 24 24 28 29 28 29 29 24 27 22 24 26 27 18 15 22 23 20 17 18 14 14 20 26 26 23 16 21 16 13
17 16 16 14 13 12 3 4 4 5 7 12 17 20 24 23 22 27 31 28 29 28 31 24 17 20 19 16 23 21 19 23 27 20 30 16 20 25 27 24 18 16 20 16
18 17 17 15 14 12 5 4 7 11 9 10 14 17 16 24 25 21 29 26 34 31 28 27 27 28 23 14 9 8 19 23 27 31 28 20 21 23 28 28 28 26 19 23
20 17 17 17 17 15 7 6 4 6 14 20 20 19 23 28 30 26 29 22 28 29 34 27 24 10 11 12 2 13 15 20 25 26 26 26 24 25 27 32 29 32 26 23
21 19 17 18 17 13 4 4 5 6 12 18 16 17 17 10 16 18 24 30 27 29 29 28 31 22 18 19 17 13 11 16 15 21 23 26 24 25 27 23 24 24 25 22
21 19 19 17 18 16 6 4 4 6 12 16 20 24 25 26 25 24 27 23 17 28 27 25 24 20 22 20 19 14 13 19 14 15 19 22 22 24 25 23 21 24 20 16
22 20 19 20 20 21 9 8 7 5 10 16 21 24 22 24 24 23 21 27 28 23 28 20 17 17 24 24 24 18 15 14 10 13 15 11 13 8 21 24 22 21 21 14
21 22 21 21 20 21 11 9 9 4 5 16 23 25 23 18 15 22 27 26 18 12 8 16 15 11 10 10 6 10 14 11 10 12 18 24 17 13 10 15 21 25 21 17
23 22 22 21 22 21 12 8 15 5 4 12 16 16 14 13 12 14 7 8 14 17 6 13 17 13 6 2 9 9 10 8 9 8 14 14 7 9 9 17 8 17 21 22
23 23 20 23 23 21 13 9 11 10 4 15 18 23 18 14 10 9 4 8 8 11 8 9 13 13 17 17 11 13 10 10 8 5 5 8 6 8 11 4 1 11 14 18
23 22 18 24 22 22 17 9 8 10 8 7 11 18 20 20 21 10 3 5 5 4 8 6 10 13 14 19 17 18 12 11 8 5 6 2 2 4 3 1 8 11 14 17
23 22 19 23 20 21 16 9 7 7 6 9 12 17 21 17 15 9 4 4 5 4 8 9 7 13 16 15 19 18 21 5 8 6 3 5 2 2 2 7 10 15 16 18
23 21 19 22 21 21 19 7 6 8 1 5 8 5 6 6 8 9 10 9 9 3 3 6 6 9 6 14 14 19 12 15 12 5 7 9 6 6 10 14 16 18 17 17
21 19 19 21 21 20 13 10 6 8 5 3 4 7 4 4 5 9 10 10 12 4 4 5 7 4 5 1 2 10 6 9 10 9 13 3 12 11 13 16 16 17 18 17
19 21 19 20 21 17 6 4 6 10 7 3 5 2 4 2 5 7 5 5 2 2 2 2 3 5 7 7 7 5 3 5 4 6 13 14 16 13 15 15 13 13 15 14
20 19 20 21 22 11 4 4 1 7 6 2 4 4 3 2 2 2 2 3 1 2 1 1 3 3 1 4 3 6 6 7 16 17 20 17 14 11 14 15 15 15 13 11
18 19 20 21 25 14 8 7 9 5 2 3 4 1 3 1 2 1 1 2 4 2 0 0 3 3 3 5 5 8 10 12 12 7 7 16 17 16 16 12 13 14 12 11
18 19 23 8 4 3 3 4 10 2 2 3 3 3 1 3 2 3 3 2 3 2 3 3 1 3 5 7 9 10 7 8 10 12 16 17 15 15 16 16 12 12 10 8
18 10 3 3 3 5 9 3 2 2 3 4 4 1 2 3 3 1 4 3 2 0 4 3 3 5 5 3 2 5 4 11 10 13 13 13 13 12 11 10 8 7 8 7
2 2 3 2 2 1 1 3 4 4 4 4 2 4 4 3 2 3 1 1 1 1 3 2 3 6 8 9 10 6 3 5 12 13 10 9 10 10 8 6 5 5 5 5
7 9 7 2 2 2 4 2 3 5 3 5 4 4 1 4 3 3 2 0 1 3 1 2 4 5 6 8 10 12 11 9 11 11 10 9 9 7 5 3 3 3 3 4
4 4 4 3 2 4 4 5 3 4 5 5 6 6 2 4 1 2 2 2 3 1 3 4 6 9 7 8 9 10 11 12 13 12 11 10 8 6 4 2 1 2 5 5
4 4 5 4 4 5 4 5 2 3 3 8 7 4 1 1 1 1 2 2 3 3 4 3 7 9 9 9 7 9 10 9 9 8 6 5 4 2 1 3 3 5 7 7
4 3 4 5 1 1 2 0 2 2 6 8 5 4 2 2 3 1 3 3 2 2 5 10 10 11 10 9 7 8 8 6 6 5 4 3 2 3 4 5 6 7 7 7
3 5 4 1 3 3 2 4 3 4 7 3 0 2 3 3 2 2 1 1 3 5 6 10 11 10 8 8 6 5 5 4 2 2 1 1 2 3 5 4 5 4 6 7
4 3 2 2 3 2 3 3 4 5 5 2 1 2 3 3 1 2 1 3 6 8 10 9 10 9 7 6 5 4 3 2 1 2 3 4 4 0 6 8 10 8 10 8
Wind_Direction
324 324 326 316 308 309 288 281 263 108 173 220 211 240 247 253 267 272 271 263 268 278 273 276 247 244 237 212 223 209 217 219 219 211 218 219 214 213 204 209 205 233 246 238
316 319 318 311 312 305 294 248 262 204 240 252 250 258 263 268 267 258 262 267 254 260 263 270 258 254 245 253 241 212 210 219 223 216 203 216 230 212 216 222 229 219 221 220
308 311 307 308 312 310 274 251 260 213 212 246 266 273 271 269 264 266 258 260 261 268 253 263 270 269 247 246 229 227 214 218 220 215 219 193 213 217 218 212 222 220 224 217
300 299 301 296 299 285 275 208 234 242 254 237 240 252 266 269 275 272 255 246 249 247 260 248 258 257 265 242 224 228 219 218 225 230 226 215 209 210 209 217 226 224 222 224
296 294 297 300 294 301 264 260 238 234 250 256 264 263 263 267 270 267 260 261 258 248 237 248 258 270 318 253 187 215 222 221 226 230 232 224 221 213 211 217 221 231 234 240
292 288 292 292 291 301 268 225 228 242 243 247 255 256 264 273 302 295 265 261 250 256 244 235 248 269 284 289 288 286 218 221 213 225 220 223 227 220 213 213 221 226 229 234
291 286 291 293 291 286 280 248 254 233 240 243 251 260 260 265 273 267 277 270 272 255 262 249 256 265 271 271 270 257 268 225 206 223 206 222 229 232 234 232 223 227 227 229
293 290 285 290 292 288 278 264 221 226 250 254 264 265 268 271 265 261 260 264 251 267 266 251 264 243 266 268 260 248 233 246 208 213 202 207 189 217 209 221 223 217 215 207
290 289 287 288 293 291 281 284 218 213 250 243 256 267 269 274 283 273 257 252 243 240 245 215 213 209 200 186 248 218 226 245 253 197 209 219 226 183 202 224 231 221 212 183
289 289 290 288 291 294 286 283 205 211 245 248 261 259 267 264 264 262 295 300 251 196 212 221 206 215 213 240 222 178 186 207 221 208 201 206 108 145 178 192 236 171 193 184
288 287 294 290 291 296 304 284 213 206 250 262 267 264 259 258 239 295 307 316 226 184 214 215 213 212 210 219 234 267 197 183 182 232 251 192 155 141 201 31 296 173 180 161
288 287 293 290 291 299 301 282 219 205 235 264 293 275 268 266 272 266 233 283 307 244 212 228 236 223 201 216 234 233 243 246 217 235 178 57 81 23 12 30 139 151 143 147
286 286 277 285 294 297 294 288 235 193 249 264 243 250 260 229 220 192 242 228 245 257 340 259 250 227 218 204 219 214 215 200 232 192 138 102 81 122 194 125 135 133 133 135
287 283 285 286 293 297 297 292 259 209 191 265 265 199 231 212 193 208 229 262 264 296 297 272 238 253 235 224 222 213 207 173 176 140 138 119 103 113 121 116 117 120 120 124
289 284 282 286 292 294 298 279 239 214 185 285 310 314 222 236 224 266 261 263 236 181 231 230 216 290 244 30 241 223 182 191 199 210 162 144 131 126 121 117 114 111 113 110
286 280 285 288 290 292 286 269 213 202 178 239 256 84 209 252 284 289 282 301 22 170 229 229 269 130 267 181 195 52 228 243 219 137 144 120 124 115 113 106 98 95 103 103
276 284 286 286 289 281 224 252 21 315 124 228 246 233 138 302 272 238 250 190 275 278 248 256 285 92 332 1 124 80 68 94 111 121 119 116 132 120 110 113 118 119 113 114
288 289 294 293 291 274 252 226 224 240 176 243 266 237 235 35 262 283 24 241 189 340 334 315 3 25 29 85 63 88 93 87 90 115 109 119 120 122 118 117 124 132 130 129
295 299 297 283 210 224 237 195 188 126 240 229 229 254 335 164 20 307 207 265 42 265 55 53 278 25 42 100 76 51 53 71 80 82 101 119 120 123 131 145 147 130 131 129
306 291 248 236 207 255 147 125 123 160 226 225 254 229 147 211 159 112 316 20 34 11 68 190 83 68 103 106 6 316 40 114 131 116 114 120 125 133 135 135 127 131 141 143
220 236 246 275 94 46 217 178 190 173 209 202 206 230 156 168 207 113 220 100 268 251 49 346 79 81 79 120 132 141 59 59 63 70 92 94 126 130 133 123 110 114 132 139
312 309 283 301 224 213 247 150 146 217 206 167 189 149 145 135 235 165 172 274 265 69 14 70 82 106 89 85 80 78 96 99 74 67 78 80 81 79 95 132 148 159 165 165
273 224 247 219 132 215 238 160 189 214 165 175 165 148 157 158 209 74 116 91 52 10 32 64 96 122 109 100 98 87 84 84 84 81 76 76 77 73 71 92 168 233 238 236
244 224 226 237 171 231 214 226 57 80 171 158 165 114 114 103 108 78 104 76 172 151 130 99 142 140 125 115 108 111 101 96 92 87 83 75 63 48 312 262 252 239 253 257
248 245 242 222 284 279 321 259 179 111 160 150 138 112 130 75 105 56 127 152 123 38 100 132 145 146 143 138 134 122 104 92 87 85 71 51 6 311 293 283 262 251 255 260
235 238 250 221 211 240 216 204 141 147 162 154 153 117 117 98 111 127 128 152 74 106 126 135 140 145 143 140 133 116 104 100 78 38 344 266 173 231 269 299 276 259 241 245
235 236 258 280 285 271 185 191 138 147 192 139 113 108 54 109 121 118 60 54 104 123 135 140 140 142 144 147 143 147 160 200 291 300 293 291 283 223 264 273 277 255 262 214